Tracking 31027 objects as of 19-Jul-2025
HD Live streaming from Space Station
objects crossing your sky now

STARLINK-32077

Track STARLINK-32077 now!
10-day predictions
STARLINK-32077 is classified as:


NORAD ID: 60344
Int'l Code: 2024-136R
Perigee: 481.4 km
Apogee: 483.4 km
Inclination: 53.2 °
Period: 94.1 minutes
Semi major axis: 6853 km
RCS: Unknown
Launch date: August 2, 2024
Source: United States (US)
Launch site: AIR FORCE EASTERN TEST RANGE (AFETR)
Your satellite tracking list
THORAD DELTA 1 DEB
Track 1 satellite(s)




NASA's NSSDC Master Catalog

Two Line Element Set (TLE):
1 60344U 24136R   25199.38869826 -.00000513  00000-0 -51988-5 0  9996
2 60344  53.1607  83.8542 0001410 113.9452 246.1696 15.30186661 53797
Source of the keplerian elements: AFSPC